• In Uzbekistan
  • List of Countries
  • For 7 days
  • Water Temperature
  • Satellite Maps
  • Weather Map
  • Weather Widgets
  • user-avatar
    Login

    Hourly Weather Bindura

    Today, 23 November, Thursday

    Time Temperature Precipitation Wind Pressure Humidity
    00:00 +25°C° 0 mm 1 mps 667 mmHg 60%
    01:00 +25°C° 0 mm 1 mps 667 mmHg 62%
    02:00 +24°C° 0 mm 1 mps 666 mmHg 64%
    03:00 +24°C° 0 mm 1 mps 667 mmHg 66%
    04:00 +23°C° 0 mm 1 mps 667 mmHg 69%
    05:00 +23°C° 0 mm 1 mps 667 mmHg 71%
    06:00 +24°C° 0.2 mm 2 mps 667 mmHg 71%
    07:00 +24°C° 0.2 mm 2 mps 668 mmHg 70%
    08:00 +25°C° 0.2 mm 3 mps 668 mmHg 70%
    09:00 +25°C° 0.6 mm 2 mps 668 mmHg 68%
    10:00 +26°C° 0.6 mm 2 mps 668 mmHg 66%
    11:00 +26°C° 0.6 mm 2 mps 668 mmHg 64%
    12:00 +27°C° 0.3 mm 1 mps 668 mmHg 61%
    13:00 +28°C° 0.3 mm 1 mps 668 mmHg 58%
    14:00 +29°C° 0.3 mm 1 mps 668 mmHg 55%
    15:00 +29°C° 0.5 mm 1 mps 668 mmHg 55%
    16:00 +29°C° 0.5 mm 1 mps 667 mmHg 55%
    17:00 +28°C° 0.5 mm 2 mps 667 mmHg 56%
    18:00 +27°C° 1.6 mm 2 mps 667 mmHg 62%
    19:00 +25°C° 1.6 mm 2 mps 667 mmHg 69%
    20:00 +24°C° 1.6 mm 2 mps 667 mmHg 75%
    21:00 +24°C° 0.1 mm 2 mps 668 mmHg 77%
    22:00 +23°C° 0.1 mm 1 mps 668 mmHg 78%
    23:00 +23°C° 0.1 mm 1 mps 668 mmHg 79%

    Tomorrow, 24 November, Friday

    Time Temperature Precipitation Wind Pressure Humidity
    00:00 +23°C° 0 mm 1 mps 668 mmHg 80%
    01:00 +23°C° 0 mm 1 mps 668 mmHg 80%
    02:00 +23°C° 0 mm 1 mps 667 mmHg 80%
    03:00 +22°C° 0 mm 1 mps 668 mmHg 82%
    04:00 +22°C° 0 mm 1 mps 668 mmHg 84%
    05:00 +21°C° 0 mm 1 mps 668 mmHg 86%
    06:00 +23°C° 0 mm 1 mps 668 mmHg 80%
    07:00 +24°C° 0 mm 2 mps 669 mmHg 75%
    08:00 +25°C° 0 mm 2 mps 669 mmHg 69%
    09:00 +26°C° 0 mm 3 mps 670 mmHg 63%
    10:00 +28°C° 0 mm 3 mps 670 mmHg 57%
    11:00 +29°C° 0 mm 3 mps 670 mmHg 51%
    12:00 +30°C° 1 mm 3 mps 669 mmHg 51%
    13:00 +30°C° 1 mm 2 mps 668 mmHg 51%
    14:00 +30°C° 1 mm 2 mps 668 mmHg 51%
    15:00 +29°C° 1.1 mm 1 mps 667 mmHg 56%
    16:00 +28°C° 1.1 mm 1 mps 667 mmHg 61%
    17:00 +27°C° 1.1 mm 1 mps 667 mmHg 66%
    18:00 +26°C° 0.2 mm 1 mps 667 mmHg 68%
    19:00 +25°C° 0.2 mm 1 mps 667 mmHg 70%
    20:00 +25°C° 0.2 mm 1 mps 667 mmHg 71%
    21:00 +25°C° 0 mm 1 mps 667 mmHg 72%
    22:00 +24°C° 0 mm 1 mps 667 mmHg 73%
    23:00 +24°C° 0 mm 1 mps 667 mmHg 74%

    Day after tomorrow, 25 November, Saturday

    Time Temperature Precipitation Wind Pressure Humidity
    00:00 +24°C° 0 mm 1 mps 667 mmHg 76%
    01:00 +23°C° 0 mm 1 mps 666 mmHg 79%
    02:00 +22°C° 0 mm 1 mps 666 mmHg 81%
    03:00 +22°C° 0 mm 1 mps 666 mmHg 82%
    04:00 +22°C° 0 mm 1 mps 666 mmHg 83%
    05:00 +22°C° 0 mm 1 mps 667 mmHg 84%
    06:00 +23°C° 0.2 mm 1 mps 667 mmHg 80%
    07:00 +24°C° 0.2 mm 1 mps 668 mmHg 77%
    08:00 +24°C° 0.2 mm 1 mps 668 mmHg 73%
    09:00 +26°C° 0.2 mm 2 mps 668 mmHg 68%
    10:00 +27°C° 0.2 mm 2 mps 669 mmHg 63%
    11:00 +28°C° 0.2 mm 2 mps 669 mmHg 59%
    12:00 +28°C° 0.2 mm 2 mps 668 mmHg 57%
    13:00 +29°C° 0.2 mm 2 mps 667 mmHg 54%
    14:00 +29°C° 0.2 mm 2 mps 667 mmHg 52%
    15:00 +29°C° 0.1 mm 2 mps 666 mmHg 52%
    16:00 +29°C° 0.1 mm 2 mps 666 mmHg 53%
    17:00 +29°C° 0.1 mm 2 mps 665 mmHg 53%
    18:00 +27°C° 0 mm 1 mps 666 mmHg 58%
    19:00 +26°C° 0 mm 1 mps 666 mmHg 64%
    20:00 +24°C° 0 mm 1 mps 666 mmHg 69%
    21:00 +24°C° 0.2 mm 1 mps 666 mmHg 71%
    22:00 +23°C° 0.2 mm 1 mps 667 mmHg 72%
    23:00 +23°C° 0.2 mm 1 mps 667 mmHg 74%

    26 November, Sunday

    Time Temperature Precipitation Wind Pressure Humidity
    00:00 +23°C° 0 mm 1 mps 667 mmHg 76%
    01:00 +22°C° 0 mm 1 mps 666 mmHg 79%
    02:00 +22°C° 0 mm 1 mps 665 mmHg 81%
    03:00 +22°C° 0 mm 1 mps 666 mmHg 83%
    04:00 +21°C° 0 mm 1 mps 666 mmHg 85%
    05:00 +21°C° 0 mm 1 mps 666 mmHg 88%
    06:00 +22°C° 0.2 mm 1 mps 667 mmHg 82%
    07:00 +24°C° 0.2 mm 2 mps 668 mmHg 76%
    08:00 +25°C° 0.2 mm 2 mps 668 mmHg 71%
    09:00 +26°C° 1.2 mm 3 mps 668 mmHg 67%
    10:00 +27°C° 1.2 mm 3 mps 668 mmHg 64%
    11:00 +28°C° 1.2 mm 4 mps 668 mmHg 60%
    12:00 +29°C° 1.3 mm 3 mps 668 mmHg 58%
    13:00 +29°C° 1.3 mm 3 mps 668 mmHg 56%
    14:00 +30°C° 1.3 mm 3 mps 667 mmHg 54%
    15:00 +29°C° 1.3 mm 2 mps 667 mmHg 60%
    16:00 +28°C° 1.3 mm 1 mps 667 mmHg 65%
    17:00 +27°C° 1.3 mm 1 mps 667 mmHg 70%
    18:00 +26°C° 0.8 mm 1 mps 667 mmHg 74%
    19:00 +25°C° 0.8 mm 1 mps 667 mmHg 77%
    20:00 +24°C° 0.8 mm 1 mps 667 mmHg 81%
    21:00 +24°C° 0.3 mm 1 mps 667 mmHg 82%
    22:00 +23°C° 0.3 mm 1 mps 667 mmHg 83%
    23:00 +21°C° 0.3 mm 0 mps 668 mmHg 85%

    27 November, Monday

    Time Temperature Precipitation Wind Pressure Humidity
    00:00 +23°C° 0.9 mm 1 mps 667 mmHg 86%
    01:00 +22°C° 0.9 mm 1 mps 667 mmHg 87%
    02:00 +22°C° 0.9 mm 1 mps 666 mmHg 88%
    03:00 +22°C° 0.9 mm 1 mps 667 mmHg 88%
    04:00 +22°C° 0.9 mm 1 mps 667 mmHg 89%
    05:00 +22°C° 0.9 mm 1 mps 667 mmHg 89%
    06:00 +23°C° 1.8 mm 1 mps 668 mmHg 83%
    07:00 +24°C° 1.8 mm 1 mps 669 mmHg 76%
    08:00 +26°C° 1.8 mm 1 mps 669 mmHg 70%
    09:00 +27°C° 1.2 mm 1 mps 669 mmHg 66%
    10:00 +28°C° 1.2 mm 1 mps 669 mmHg 62%
    11:00 +29°C° 1.2 mm 1 mps 669 mmHg 58%
    12:00 +29°C° 1.6 mm 1 mps 669 mmHg 58%
    13:00 +29°C° 1.6 mm 1 mps 668 mmHg 58%
    14:00 +29°C° 1.6 mm 1 mps 668 mmHg 58%
    15:00 +27°C° 1.5 mm 1 mps 668 mmHg 64%
    16:00 +26°C° 1.5 mm 2 mps 668 mmHg 70%
    17:00 +24°C° 1.5 mm 2 mps 667 mmHg 76%
    18:00 +24°C° 0.7 mm 3 mps 668 mmHg 78%
    19:00 +22°C° 0.7 mm 3 mps 668 mmHg 81%
    20:00 +21°C° 0.7 mm 3 mps 668 mmHg 83%
    21:00 +21°C° 0.1 mm 3 mps 669 mmHg 84%
    22:00 +21°C° 0.1 mm 2 mps 669 mmHg 86%
    23:00 +20°C° 0.1 mm 2 mps 669 mmHg 87%

    28 November, Tuesday

    Time Temperature Precipitation Wind Pressure Humidity
    00:00 +20°C° 0 mm 2 mps 669 mmHg 88%
    01:00 +21°C° 0 mm 1 mps 669 mmHg 88%
    02:00 +21°C° 0 mm 1 mps 668 mmHg 89%
    03:00 +20°C° 0 mm 1 mps 668 mmHg 90%
    04:00 +20°C° 0 mm 1 mps 669 mmHg 91%
    05:00 +20°C° 0 mm 1 mps 669 mmHg 92%
    06:00 +20°C° 0 mm 1 mps 669 mmHg 87%
    07:00 +20°C° 0 mm 2 mps 670 mmHg 82%
    08:00 +21°C° 0 mm 2 mps 670 mmHg 77%
    09:00 +23°C° 0.1 mm 2 mps 670 mmHg 72%
    10:00 +24°C° 0.1 mm 2 mps 670 mmHg 68%
    11:00 +25°C° 0.1 mm 2 mps 670 mmHg 64%
    12:00 +26°C° 0.2 mm 2 mps 669 mmHg 62%
    13:00 +27°C° 0.2 mm 2 mps 669 mmHg 60%
    14:00 +27°C° 0.2 mm 2 mps 668 mmHg 58%
    15:00 +27°C° 0.2 mm 2 mps 668 mmHg 59%
    16:00 +26°C° 0.2 mm 2 mps 668 mmHg 60%
    17:00 +26°C° 0.2 mm 2 mps 668 mmHg 61%
    18:00 +25°C° 0.2 mm 2 mps 668 mmHg 66%
    19:00 +24°C° 0.2 mm 2 mps 668 mmHg 71%
    20:00 +21°C° 0.2 mm 2 mps 669 mmHg 76%
    21:00 +22°C° 0.1 mm 1 mps 669 mmHg 79%
    22:00 +21°C° 0.1 mm 1 mps 669 mmHg 81%
    23:00 +21°C° 0.1 mm 1 mps 669 mmHg 84%
    Show more